Change the Weather History Date:

Thursday, April 10, 2014

  Actual Average Record
Temperature  
Mean Temperature 53 °F 45 °F  
Max Temperature 64 °F 57 °F 79 °F (2012)
Min Temperature 41 °F 33 °F 17 °F (2010)
Degree Days  
Heating Degree Days 12 20  
Month to date heating degree days 189 211  
Since 1 July heating degree days 5579 6030  
Cooling Degree Days 0 0  
Month to date cooling degree days 0 0  
Year to date cooling degree days 0 0  
Growing Degree Days 4 (Base 50)    
Moisture  
Dew Point 31 °F    
Average Humidity 44    
Maximum Humidity 65    
Minimum Humidity 23    
Precipitation  
Precipitation 0.00 in 0.03 in 0.38 in (1994)
Month to date precipitation 0.19 0.30  
Year to date precipitation 3.51 3.01  
Sea Level Pressure  
Sea Level Pressure 30.00 in    
Wind  
Wind Speed 14 mph (West)    
Max Wind Speed 24 mph    
Max Gust Speed 32 mph    
Visibility 10 miles    
Events      
T = Trace of Precipitation, MM = Missing Value Source: NWS Daily Summary

Daily Weather History Graph

Daily Weather History Graph

Search for Another Location

Airport or City:

Trip Planner

Search our weather history database for the weather conditions in past years. The results will help you decide how hot, cold, wet, or windy it might be!

Date:

Astronomy

Apr. 10, 2014 Rise Set
Actual Time 7:01 AM MDT 8:11 PM MDT
Civil Twilight 6:33 AM MDT 8:40 PM MDT
Nautical Twilight 5:58 AM MDT 9:15 PM MDT
Astronomical Twilight 5:22 AM MDT 9:51 PM MDT
Moon 3:53 PM MDT (4/10) 4:32 AM MDT (4/10)
Length of Visible Light 14h 07m
Length of Day
13h 09m
Waxing Gibbous, 80% of the Moon is Illuminated
Apr 10
Waxing Gibbous
Apr 15
Full
Apr 22
Last Quarter
Apr 29
New
May 6
First Quarter

Hourly Weather History & Observations

Time (MDT) Temp. Windchill Dew Point Humidity Pressure Visibility Wind Dir Wind Speed Gust Speed Precip Events Conditions
12:53 AM 51.1 °F - 34.0 °F 52% 29.94 in 10.0 mi WSW 11.5 mph - N/A   Clear
1:53 AM 50.0 °F - 34.0 °F 54% 29.95 in 10.0 mi WSW 13.8 mph - N/A   Clear
2:53 AM 48.9 °F - 35.1 °F 59% 29.95 in 10.0 mi West 15.0 mph 20.7 mph N/A   Clear
3:53 AM 48.0 °F - 36.0 °F 63% 29.96 in 10.0 mi West 11.5 mph 21.9 mph N/A   Mostly Cloudy
4:53 AM 48.0 °F - 36.0 °F 63% 29.97 in 10.0 mi West 16.1 mph - N/A   Mostly Cloudy
5:53 AM 46.9 °F - 35.1 °F 63% 29.98 in 10.0 mi West 12.7 mph - N/A   Partly Cloudy
6:53 AM 46.0 °F 39.0 °F 33.1 °F 61% 30.00 in 10.0 mi West 17.3 mph 25.3 mph N/A   Clear
7:53 AM 45.0 °F 39.3 °F 33.1 °F 63% 30.02 in 10.0 mi WSW 11.5 mph - N/A   Clear
8:53 AM 48.9 °F - 32.0 °F 52% 30.04 in 10.0 mi West 15.0 mph - N/A   Clear
9:53 AM 52.0 °F - 30.9 °F 45% 30.04 in 10.0 mi West 15.0 mph 21.9 mph N/A   Clear
10:53 AM 53.1 °F - 30.0 °F 41% 30.08 in 10.0 mi West 17.3 mph 23.0 mph N/A   Clear
11:53 AM 55.0 °F - 30.9 °F 40% 30.08 in 10.0 mi West 16.1 mph 24.2 mph N/A   Clear
12:53 PM 57.9 °F - 30.9 °F 36% 30.04 in 10.0 mi West 20.7 mph 27.6 mph N/A   Clear
1:53 PM 60.1 °F - 30.0 °F 32% 30.02 in 10.0 mi West 20.7 mph 27.6 mph N/A   Clear
2:53 PM 62.1 °F - 28.0 °F 28% 30.01 in 10.0 mi West 17.3 mph 28.8 mph N/A   Clear
3:53 PM 63.0 °F - 25.0 °F 24% 30.00 in 10.0 mi West 19.6 mph 27.6 mph N/A   Clear
4:53 PM 63.0 °F - 25.0 °F 24% 29.97 in 10.0 mi West 12.7 mph 24.2 mph N/A   Clear
5:53 PM 63.0 °F - 30.0 °F 29% 29.96 in 10.0 mi West 18.4 mph 26.5 mph N/A   Clear
6:53 PM 61.0 °F - 30.9 °F 32% 29.96 in 10.0 mi West 13.8 mph - N/A   Clear
7:53 PM 57.9 °F - 30.0 °F 35% 29.97 in 10.0 mi West 10.4 mph - N/A   Clear
8:53 PM 53.1 °F - 30.9 °F 43% 29.98 in 10.0 mi West 10.4 mph - N/A   Clear
9:53 PM 52.0 °F - 30.0 °F 43% 29.99 in 10.0 mi West 10.4 mph - N/A   Clear
10:53 PM 46.9 °F - 30.9 °F 54% 30.00 in 10.0 mi SSW 9.2 mph - N/A   Clear
11:53 PM 45.0 °F 40.6 °F 30.9 °F 58% 29.99 in 10.0 mi SSW 8.1 mph - N/A   Clear